Regional Weather Roundup
Issued by NWS

Home | Current Version | Previous Version | Graphics & Text | Print | Product List | Glossary On
Versions: 1 2 3 4 5 6 7 8 9 10 11 12 13 14 15 16 17 18 19 20 21 22 23 24 25 26 27 28 29 30 31 32 33 34 35 36 37 38 39 40 41 42 43 44 45 46 47 48 49 50
000
ASUS45 KBOU 041507
RWRCO

WEATHER ROUNDUP FOR COLORADO
NATIONAL WEATHER SERVICE DENVER/BOULDER CO
900 AM MDT FRI SEP 04 2015

NOTE: "FAIR" INDICATES FEW OR NO CLOUDS BELOW 12000 FEET WITH NO
SIGNIFICANT WEATHER AND/OR OBSTRUCTIONS TO VISIBILITY.

COZ001>005-013-030-031-041600-
...NORTHWEST COLORADO...

CITY           SKY/WX    TMP DP  RH WIND       PRES   REMARKS
CRAIG          MOSUNNY   58  47  66 CALM      30.10F
HAYDEN         MOSUNNY   57  43  58 E12       30.12F
MEEKER         MOSUNNY   60  46  59 CALM      30.10F
MOUNT WERNER   NOT AVBL
STEAMBOAT SPGS MOSUNNY   52  44  75 CALM      30.16S
WALDEN         MOSUNNY   50  45  81 CALM      30.23S
$$

COZ006>008-011-041600-
...WEST CENTRAL VALLEYS...

CITY           SKY/WX    TMP DP  RH WIND       PRES   REMARKS
GRAND JUNCTION MOSUNNY   67  50  54 SE21      30.03R
MONTROSE       CLOUDY    61  49  64 SE8       30.14R
EAGLE          SUNNY     52  45  76 CALM      30.22F
RIFLE          MOSUNNY   59  51  75 W3        30.09S
DELTA          RAIN      63  53  70 NE8       30.11R
NUCLA          DRIZZLE   61  48  63 E5        30.16S
$$

COZ017>023-064>068-041600-
...SOUTHWEST COLORADO...

CITY           SKY/WX    TMP DP  RH WIND       PRES   REMARKS
DURANGO        LGT RAIN  58  50  75 W5        30.20R
CORTEZ         CLOUDY    65  49  56 CALM      30.13R
PAGOSA SPRINGS CLOUDY    57  43  58 CALM      30.27S
TELLURIDE      RAIN      51  47  87 CALM      30.33S
WOLF CREEK PAS NOT AVBL
$$

COZ009-010-012-014-032>034-037-058>063-041600-
...CENTRAL COLORADO...

CITY           SKY/WX    TMP DP  RH WIND       PRES   REMARKS
ASPEN          MOSUNNY   55  45  68 S5        30.22F
BUENA VISTA    MOSUNNY   50  43  77 CALM      30.26S
COPPER MTN     MOSUNNY   52  34  50 NW3       30.50S
BERTHOUD PASS  CLOUDY    39  28  65 NW17G24   30.54R
COTTONWOOD PAS MOSUNNY   54  39  58 SE7       30.37R
GUNNISON       MOSUNNY   48  43  81 CALM      30.31R
KREMMLING      CLOUDY    46  45  93 CALM      30.27S
LEADVILLE      NOT AVBL
MONARCH PASS   MOSUNNY   46  36  66 CALM      30.60S
SALIDA         MOSUNNY   52  44  74 CALM      30.32S
SUNLIGHT       MOSUNNY   50  41  71 CALM      30.43S
WILKERSON PASS CLOUDY    50  32  50 N3        30.48R
$$

COZ069>075-041600-
...SAN LUIS VALLEY/SANGRE DE CRISTO MOUNTAINS...

CITY           SKY/WX    TMP DP  RH WIND       PRES   REMARKS
ALAMOSA        PTSUNNY   48  46  93 SW5       30.24S
LA VETA PASS   CLOUDY    52  39  62 MISG      30.39R
SAGUACHE       PTSUNNY   55  45  67 NW10      30.27S
$$

COZ035-036-038>040-041600-
...NORTHERN COLORADO FRONT RANGE...

CITY           SKY/WX    TMP DP  RH WIND       PRES   REMARKS
DENVER INTL AP MOSUNNY   65  50  58 SW7       30.03R
DMNS CITY PARK   N/A     67  49  51 SE7       30.03S
AURORA         MOSUNNY   68  49  50 S12       30.06R
FRONT RANGE AP PTSUNNY   64  48  55 CALM      30.05R
ERIE MUNI ARPT SUNNY     66  50  56 CALM      30.02R
BOULDER MUN AP SUNNY     66  46  48 CALM      30.01S
CENTENNIAL     MOSUNNY   69  49  48 S8        30.07R
BROOMFIELD     MOSUNNY   68  50  52 SE5       30.05R
FORT COLLINS   SUNNY     61  48  63 N7        30.02F
LONGMONT       SUNNY     68  51  53 CALM      30.02S
$$

COZ041-046-047-076>085-087-088-041600-
...PIKES PEAK/PALMER DIVIDE AND SOUTHERN FOOTHILLS...

CITY           SKY/WX    TMP DP  RH WIND       PRES   REMARKS
COLO. SPRINGS  PTSUNNY   70  48  45 CALM      30.12R
A. F. ACADEMY  CLOUDY    65  48  53 E3        30.13R
ELLICOTT       MOSUNNY  N/A N/A N/A S13       30.09S
FALCON         MOSUNNY   69  46  43 MISG      30.16S
FORT CARSON    PTSUNNY   69  52  54 N3        30.08S
LIMON          PTSUNNY   70  52  52 S6        30.06R
MONUMENT HILL  MOSUNNY   68  43  40 SW10      30.16R
TRINIDAD       SUNNY     69  46  43 W9        30.09S
$$

COZ042>045-048>051-090-091-041600-
...NORTHEAST COLORADO...

CITY           SKY/WX    TMP DP  RH WIND       PRES   REMARKS
GREELEY ARPT   SUNNY     64  52  63 SE7       30.01R
AKRON          MOSUNNY   68  52  56 W9        29.99R
BURLINGTON     SUNNY     76  51  41 NW7       29.97S
WRAY           CLOUDY    72  56  56 W7        29.93S
STERLING       MOSUNNY   64  55  72 S9        29.94R
HOLYOKE        SUNNY     73  54  49 W6        29.92S
FORT MORGAN    MOSUNNY   65  54  68 W10       29.99S
$$

COZ086-089-092>099-041600-
...SOUTHEAST COLORADO...

CITY           SKY/WX    TMP DP  RH WIND       PRES   REMARKS
PUEBLO         SUNNY     69  51  52 CALM      30.03R
LA JUNTA       SUNNY     76  50  40 SW7       30.00R
LAMAR          SUNNY     75  55  49 W7        29.95R
SPRINGFIELD      N/A     80  51  36 W7        29.99S
$$




USA.gov is the U.S. government's official web portal to all federal, state and local government web resources and services.